Regional Weather Roundup
Issued by NWS

Home | Current Version | Previous Version | Text Only | Print | Product List | Glossary Off
Versions: 1 2 3 4 5 6 7 8 9 10 11 12 13 14 15 16 17 18 19 20 21 22 23 24 25 26 27 28 29 30 31 32 33 34 35 36 37 38 39 40 41 42 43 44 45 46 47 48 49 50

000
ASUS45 KBOU 260707
RWRCO

WEATHER ROUNDUP FOR COLORADO
NATIONAL WEATHER SERVICE DENVER/BOULDER CO
100 AM MDT SUN APR 26 2015

NOTE: "FAIR" INDICATES FEW OR NO CLOUDS BELOW 12000 FEET WITH NO
SIGNIFICANT WEATHER AND/OR OBSTRUCTIONS TO VISIBILITY.

COZ001>005-013-030-031-260800-
...NORTHWEST COLORADO...

CITY           SKY/WX    TMP DP  RH WIND       PRES   REMARKS
CRAIG          CLOUDY    43  37  79 E14G23    29.76F
HAYDEN         CLOUDY    39  36  87 E15G22    29.79F
MEEKER         CLOUDY    41  37  86 NE5       29.76S
MOUNT WERNER   NOT AVBL
STEAMBOAT SPGS CLOUDY    37  35  92 E22       29.80F
WALDEN         CLOUDY    34  32  93 SW6       29.83S WCI  29
$$

COZ006>008-011-260800-
...WEST CENTRAL VALLEYS...

CITY           SKY/WX    TMP DP  RH WIND       PRES   REMARKS
GRAND JUNCTION CLOUDY    45  44  97 NW6       29.73S
MONTROSE       CLOUDY    45  39  79 E5        29.79S
EAGLE          MOCLDY    39  37  93 E6        29.83F
RIFLE          CLOUDY    44  41  89 CALM      29.76F
DELTA          NOT AVBL
NUCLA          MOCLDY    45  36  70 S12       29.81S
$$

COZ017>023-064>068-260800-
...SOUTHWEST COLORADO...

CITY           SKY/WX    TMP DP  RH WIND       PRES   REMARKS
DURANGO        PTCLDY    38  34  85 CALM      29.81S
CORTEZ         CLOUDY    44  41  89 S3        29.79F
PAGOSA SPRINGS MOCLDY    38  37  96 NE7       29.86F
TELLURIDE      CLOUDY    35  32  87 E5        29.85S WCI  31
WOLF CREEK PAS NOT AVBL
$$

COZ009-010-012-014-032>034-037-058>063-260800-
...CENTRAL COLORADO...

CITY           SKY/WX    TMP DP  RH WIND       PRES   REMARKS
ASPEN          CLOUDY    35  33  92 CALM      29.80F
BUENA VISTA    MOCLDY    37  35  92 NW5       29.85R
COPPER MTN     CLOUDY    32  28  86 SE9       29.93F WCI  24
BERTHOUD PASS  HVY SNOW  23  16  74 MISG      29.96S VSB<1/4
COTTONWOOD PAS CLOUDY    37  30  75 CALM      29.89S
GUNNISON       CLOUDY    39  30  70 CALM      29.85S
KREMMLING      LGT RAIN  37  34  87 NE3       29.85F
LEADVILLE      CLOUDY    30  30 100 CALM      29.87F
MONARCH PASS   CLOUDY    28  21  74 S13       30.05S WCI  18
SALIDA         MOCLDY    44  36  73 N12       29.88F
SUNLIGHT       CLOUDY    32  30  93 CALM      29.91F
WILKERSON PASS CLOUDY    32  27  80 MISG      29.96F
$$

COZ069>075-260800-
...SAN LUIS VALLEY/SANGRE DE CRISTO MOUNTAINS...

CITY           SKY/WX    TMP DP  RH WIND       PRES   REMARKS
ALAMOSA        PTCLDY    34  26  72 S6        29.83F WCI  29
LA VETA PASS   PTCLDY    34  25  69 S8G20     29.89F WCI  27
SAGUACHE       MOCLDY    36  28  75 SE6       29.85S
$$

COZ035-036-038>040-260800-
...NORTHERN COLORADO FRONT RANGE...

CITY           SKY/WX    TMP DP  RH WIND       PRES   REMARKS
DENVER INTL AP CLOUDY    46  42  86 E7        29.79R
DMNS CITY PARK   N/A     49  41  74 N7        29.79S
AURORA         MOCLDY    46  43  90 NW6       29.80R
FRONT RANGE AP CLOUDY    46  45  93 E5        29.79S
ERIE MUNI ARPT LGT RAIN  49  43  82 N5        29.79S
BOULDER MUN AP CLOUDY    46  43  87 CALM      29.80R
CENTENNIAL     CLOUDY    47  41  80 NW6       29.80R
BROOMFIELD     CLOUDY    46  43  87 N7        29.81S
FORT COLLINS   CLOUDY    48  41  76 N6        29.81F
LONGMONT       CLOUDY    51  43  76 CALM      29.81S
$$

COZ041-046-047-076>085-087-088-260800-
...PIKES PEAK/PALMER DIVIDE AND SOUTHERN FOOTHILLS...

CITY           SKY/WX    TMP DP  RH WIND       PRES   REMARKS
COLO. SPRINGS  MOCLDY    52  36  54 SE7       29.79S
A. F. ACADEMY  LGT RAIN  47  37  66 W2        29.80F
ELLICOTT       MOCLDY   N/A N/A N/A SE16G24   29.76F
FALCON         CLOUDY    48  36  61 SE9       29.82F
FORT CARSON    MOCLDY    52  35  51 VRB2      29.76S
LIMON          CLOUDY    50  47  89 SE15      29.79R
MONUMENT HILL  LGT RAIN  41  36  81 NW6       29.81F
TRINIDAD       PTCLDY    48  27  44 W12       29.72S
$$

COZ042>045-048>051-090-091-260800-
...NORTHEAST COLORADO...

CITY           SKY/WX    TMP DP  RH WIND       PRES   REMARKS
GREELEY ARPT   CLOUDY    46  37  71 NE5       29.80S
AKRON          LGT RAIN  45  44  97 E25G33    29.79F FOG
BURLINGTON     FOG       50  48  93 E17G25    29.78R VSB 1/4
WRAY           LGT RAIN N/A N/A N/A E12G20    29.85S
STERLING       LGT RAIN  46  46 100 NE13G24   29.78S
HOLYOKE        RAIN      46  45  93 NE10      29.86F
FORT MORGAN    TSTM      45  42  90 E12       29.81R
$$

COZ086-089-092>099-260800-
...SOUTHEAST COLORADO...

CITY           SKY/WX    TMP DP  RH WIND       PRES   REMARKS
PUEBLO         PTCLDY    52  36  54 NE10      29.69F
LA JUNTA       PTCLDY    56  43  61 SE9       29.71R
LAMAR          MOCLDY    55  51  86 SE21G31   29.69S
SPRINGFIELD      N/A     50  46  86 E17       29.71F
$$


USA.gov is the U.S. government's official web portal to all federal, state and local government web resources and services.